Torna al catalogo

STARLINK-30414

AttivoComunicazioniVLEO
NORAD 57859·PAYLOAD·🇺🇸 United States

Lanciato Sep 12, 2023 da Vandenberg Space Force Base

Loading…

Prossimi Passaggi (prossime 24 ore)

TLE

AggiornatoSource: CelesTrak SupGP

Epoca: Sep 15, 2026, 03:11 UTC

1 57859C 23141V   26258.13312500  .00035784  00000+0  10573-2 0  2585
2 57859  53.1563 122.4715 0001238  80.7253  29.9366 15.34371733    13

Traccia STARLINK-30414 in tempo reale con AllMySat

Download on the App Store